ARIANE 2 DEB, 40788

Orbit data source: Space-Track

ARIANE 2 DEB, 40788 is space debris in HEO originally from a launch on Fri, 27 Jan 1989 UTC launched from the French Guiana (FRGUI). Debris objects in space refer to the collection of defunct objects orbiting the Earth. Examples of debris include non-operational satellites, rocket bodies, and fragments generated from explosions, collisions, or faulty payload assembly.

Loading next visibility...
Identifier
40788, 1989-006CH
Orbit
HEO
Country
Flag of FRFR
Related business
Manufacturer
EADS/LV
Mission
Spacecraft
Bus & Motor
Unknown
Mass
Unknown
Launch date (UTC)
1989-01-27 (37 years ago)
Launch vehicle
Unknown
Launch site
French Guiana (FRGUI)
Object type
Payload
Rocket body
Debris
Shape & HBR
Unknown shape, 0.2 m
Radar Cross Section
Medium (>0.1 m² and <1 m²)

Expand to show TLE details & history
Last TLE update: 1 day ago

TLE from 1 day ago
0 ARIANE 2 DEB
1 40788U 89006CH  26199.15581201  .00000023  00000-0  22245-3 0  9993
2 40788   8.6133 202.3030 6228518 154.1011 258.7755  3.54684162144934
Epoch: 2026-07-18T03:44Z
TLE epoch observation values (Epoch: 2026-07-18T03:44:22.157Z)
Latitude
-0.00003°
Longitude
-149.74137°
Altitude
18,880.336 km
Speed
3.101 km/s
True Right ascension
13h 29m 17s
True Declination
0° 00' 00"
Sunlit
Object was in daylight at epoch
Visualization orbit readout
Latitude
Unknown
Longitude
Unknown
Altitude
Unknown
Speed
Unknown
Apparent Right ascension
Unknown
Apparent Declination
Unknown
Sunlit
N/A
Visualization observer readout
Local Sidereal Time
19:30:54
Azimuth
Unknown
Elevation
Unknown
Doppler factor
Unknown
Orbital elements
Apogee altitude
23,104.758 km
Perigee altitude
473.641 km
Semi-major axis
18,167.337 km
Eccentricity
0.62285
Inclination
8.6133°
RAAN
202.303°
Arg. of periapsis
154.1011°
True anomaly
205.91572°
Mean anomaly
258.7755°
Eccentric anomaly
231.02993°
Mean motion
0.88635 °/min
Orbital period
406.16 mins
BSTAR
0.00022245
Loading maneuver chart data...
Computing Atmospheric mass density...
Loading historical data...
Loading historical data...
Loading historical data...
Loading historical data...
Loading historical data...
Loading historical data...
Loading historical data...

Documentation

Showing up to 5 results
|